When you browse on this site, cookies collect data to enhance your experience and personalize the content and advertising you see.
Visit our Privacy Policy to learn more. By continuing to use the site, you agree to this use of cookies and data.
  • In Hungary
  • List of Countries
  • For 7 days
  • Water Temperature
  • Satellite Maps
  • Weather Map
  • News
  • Weather Widgets
  • user-avatar
    Login

    Hourly Weather Makadi Bey

    Today, 20 January, Sunday

    Time Temperature Precipitation Wind Pressure Humidity
    00:00 +10°C° 0 mm 0 mps 708 mmHg 31%
    01:00 +10°C° 0 mm 0 mps 708 mmHg 31%
    02:00 +9°C° 0 mm 0 mps 708 mmHg 32%
    03:00 +9°C° 0 mm 0 mps 708 mmHg 31%
    04:00 +9°C° 0 mm 0 mps 708 mmHg 31%
    05:00 +8°C° 0 mm 0 mps 708 mmHg 30%
    06:00 +10°C° 0 mm 0 mps 708 mmHg 26%
    07:00 +11°C° 0 mm 0 mps 708 mmHg 22%
    08:00 +13°C° 0 mm 0 mps 709 mmHg 19%
    09:00 +15°C° 0 mm 0 mps 709 mmHg 16%
    10:00 +16°C° 0 mm 0 mps 709 mmHg 14%
    11:00 +18°C° 0 mm 0 mps 710 mmHg 12%
    12:00 +19°C° 0 mm 0 mps 709 mmHg 11%
    13:00 +22°C° 0 mm 1 mps 709 mmHg 11%
    14:00 +23°C° 0 mm 1 mps 708 mmHg 11%
    15:00 +22°C° 0 mm 1 mps 708 mmHg 13%
    16:00 +21°C° 0 mm 1 mps 708 mmHg 16%
    17:00 +20°C° 0 mm 1 mps 708 mmHg 18%
    18:00 +19°C° 0 mm 1 mps 708 mmHg 21%
    19:00 +16°C° 0 mm 0 mps 708 mmHg 23%
    20:00 +14°C° 0 mm 0 mps 708 mmHg 25%
    21:00 +14°C° 0 mm 0 mps 708 mmHg 25%
    22:00 +13°C° 0 mm 0 mps 708 mmHg 25%
    23:00 +13°C° 0 mm 0 mps 708 mmHg 25%

    Tomorrow, 21 January, Monday

    Time Temperature Precipitation Wind Pressure Humidity
    00:00 +12°C° 0 mm 0 mps 708 mmHg 27%
    01:00 +13°C° 0 mm 1 mps 707 mmHg 30%
    02:00 +13°C° 0 mm 1 mps 707 mmHg 32%
    03:00 +12°C° 0 mm 1 mps 707 mmHg 35%
    04:00 +12°C° 0 mm 1 mps 707 mmHg 38%
    05:00 +11°C° 0 mm 1 mps 707 mmHg 41%
    06:00 +12°C° 0 mm 0 mps 707 mmHg 38%
    07:00 +13°C° 0 mm 0 mps 708 mmHg 35%
    08:00 +15°C° 0 mm 0 mps 708 mmHg 32%
    09:00 +17°C° 0 mm 0 mps 708 mmHg 26%
    10:00 +18°C° 0 mm 0 mps 709 mmHg 21%
    11:00 +20°C° 0 mm 0 mps 709 mmHg 15%
    12:00 +21°C° 0 mm 0 mps 709 mmHg 14%
    13:00 +24°C° 0 mm 1 mps 708 mmHg 13%
    14:00 +25°C° 0 mm 1 mps 708 mmHg 12%
    15:00 +23°C° 0 mm 1 mps 708 mmHg 13%
    16:00 +22°C° 0 mm 1 mps 708 mmHg 15%
    17:00 +19°C° 0 mm 0 mps 707 mmHg 17%
    18:00 +18°C° 0 mm 0 mps 707 mmHg 21%
    19:00 +17°C° 0 mm 0 mps 707 mmHg 24%
    20:00 +15°C° 0 mm 0 mps 707 mmHg 27%
    21:00 +15°C° 0 mm 0 mps 707 mmHg 28%
    22:00 +14°C° 0 mm 0 mps 707 mmHg 28%
    23:00 +14°C° 0 mm 0 mps 707 mmHg 28%

    Day after tomorrow, 22 January, Tuesday

    Time Temperature Precipitation Wind Pressure Humidity
    00:00 +13°C° 0 mm 0 mps 707 mmHg 26%
    01:00 +13°C° 0 mm 0 mps 707 mmHg 24%
    02:00 +12°C° 0 mm 0 mps 707 mmHg 22%
    03:00 +12°C° 0 mm 0 mps 706 mmHg 21%
    04:00 +11°C° 0 mm 0 mps 706 mmHg 20%
    05:00 +11°C° 0 mm 0 mps 706 mmHg 18%
    06:00 +12°C° 0 mm 0 mps 707 mmHg 16%
    07:00 +14°C° 0 mm 0 mps 707 mmHg 14%
    08:00 +15°C° 0 mm 0 mps 708 mmHg 12%
    09:00 +17°C° 0 mm 0 mps 708 mmHg 11%
    10:00 +21°C° 0 mm 1 mps 709 mmHg 10%
    11:00 +23°C° 0 mm 1 mps 709 mmHg 9%
    12:00 +24°C° 0 mm 2 mps 708 mmHg 9%
    13:00 +24°C° 0 mm 2 mps 708 mmHg 9%
    14:00 +25°C° 0 mm 2 mps 707 mmHg 8%
    15:00 +24°C° 0 mm 2 mps 707 mmHg 10%
    16:00 +23°C° 0 mm 2 mps 707 mmHg 12%
    17:00 +22°C° 0 mm 1 mps 707 mmHg 13%
    18:00 +20°C° 0 mm 1 mps 707 mmHg 18%
    19:00 +18°C° 0 mm 1 mps 707 mmHg 23%
    20:00 +16°C° 0 mm 1 mps 707 mmHg 28%
    21:00 +15°C° 0 mm 1 mps 707 mmHg 31%
    22:00 +14°C° 0 mm 1 mps 707 mmHg 34%
    23:00 +13°C° 0 mm 1 mps 707 mmHg 37%

    23 January, Wednesday

    Time Temperature Precipitation Wind Pressure Humidity
    00:00 +13°C° 0 mm 1 mps 706 mmHg 38%
    01:00 +12°C° 0 mm 1 mps 706 mmHg 40%
    02:00 +12°C° 0 mm 1 mps 706 mmHg 41%
    03:00 +11°C° 0 mm 1 mps 706 mmHg 41%
    04:00 +11°C° 0 mm 1 mps 705 mmHg 41%
    05:00 +11°C° 0 mm 1 mps 705 mmHg 41%
    06:00 +12°C° 0 mm 1 mps 706 mmHg 37%
    07:00 +14°C° 0 mm 1 mps 706 mmHg 32%
    08:00 +15°C° 0 mm 1 mps 707 mmHg 27%
    09:00 +18°C° 0 mm 1 mps 707 mmHg 23%
    10:00 +20°C° 0 mm 1 mps 707 mmHg 20%
    11:00 +21°C° 0 mm 2 mps 708 mmHg 16%
    12:00 +23°C° 0 mm 2 mps 707 mmHg 15%
    13:00 +24°C° 0 mm 2 mps 707 mmHg 14%
    14:00 +25°C° 0 mm 2 mps 706 mmHg 13%
    15:00 +24°C° 0 mm 2 mps 706 mmHg 16%
    16:00 +23°C° 0 mm 2 mps 706 mmHg 18%
    17:00 +22°C° 0 mm 1 mps 705 mmHg 20%
    18:00 +20°C° 0 mm 1 mps 705 mmHg 26%
    19:00 +18°C° 0 mm 1 mps 706 mmHg 33%
    20:00 +16°C° 0 mm 1 mps 706 mmHg 39%
    21:00 +15°C° 0 mm 1 mps 705 mmHg 41%
    22:00 +15°C° 0 mm 1 mps 705 mmHg 43%
    23:00 +14°C° 0 mm 1 mps 705 mmHg 45%

    24 January, Thursday

    Time Temperature Precipitation Wind Pressure Humidity
    00:00 +14°C° 0 mm 1 mps 705 mmHg 45%
    01:00 +14°C° 0 mm 1 mps 705 mmHg 45%
    02:00 +14°C° 0 mm 1 mps 704 mmHg 45%
    03:00 +14°C° 0 mm 1 mps 704 mmHg 46%
    04:00 +14°C° 0 mm 1 mps 704 mmHg 47%
    05:00 +13°C° 0 mm 1 mps 704 mmHg 48%
    06:00 +15°C° 0 mm 1 mps 705 mmHg 46%
    07:00 +16°C° 0 mm 1 mps 705 mmHg 45%
    08:00 +19°C° 0 mm 1 mps 706 mmHg 44%
    09:00 +20°C° 0 mm 2 mps 706 mmHg 38%
    10:00 +23°C° 0 mm 2 mps 706 mmHg 32%
    11:00 +26°C° 0 mm 3 mps 707 mmHg 27%
    12:00 +27°C° 0 mm 3 mps 706 mmHg 23%
    13:00 +28°C° 0 mm 4 mps 706 mmHg 20%
    14:00 +29°C° 0 mm 5 mps 706 mmHg 16%
    15:00 +28°C° 0 mm 4 mps 706 mmHg 18%
    16:00 +27°C° 0 mm 3 mps 706 mmHg 21%
    17:00 +26°C° 0 mm 2 mps 705 mmHg 23%
    18:00 +24°C° 0 mm 2 mps 705 mmHg 30%
    19:00 +22°C° 0 mm 1 mps 706 mmHg 37%
    20:00 +20°C° 0 mm 1 mps 706 mmHg 43%
    21:00 +20°C° 0 mm 1 mps 706 mmHg 45%
    22:00 +17°C° 0 mm 0 mps 705 mmHg 46%
    23:00 +16°C° 0 mm 0 mps 705 mmHg 47%

    25 January, Friday

    Time Temperature Precipitation Wind Pressure Humidity
    00:00 +16°C° 0 mm 0 mps 705 mmHg 47%
    01:00 +16°C° 0 mm 0 mps 705 mmHg 46%
    02:00 +15°C° 0 mm 0 mps 705 mmHg 46%
    03:00 +15°C° 0 mm 0 mps 705 mmHg 48%
    04:00 +14°C° 0 mm 0 mps 705 mmHg 50%
    05:00 +14°C° 0 mm 0 mps 705 mmHg 53%
    06:00 +18°C° 0 mm 1 mps 705 mmHg 50%
    07:00 +19°C° 0 mm 1 mps 706 mmHg 47%
    08:00 +21°C° 0 mm 1 mps 706 mmHg 44%
    09:00 +23°C° 0 mm 1 mps 707 mmHg 39%
    10:00 +25°C° 0 mm 1 mps 707 mmHg 34%
    11:00 +27°C° 0 mm 1 mps 708 mmHg 29%
    12:00 +28°C° 0 mm 2 mps 707 mmHg 26%
    13:00 +29°C° 0 mm 3 mps 707 mmHg 23%
    14:00 +30°C° 0 mm 4 mps 706 mmHg 21%
    15:00 +29°C° 0 mm 3 mps 706 mmHg 22%
    16:00 +28°C° 0 mm 3 mps 706 mmHg 24%
    17:00 +27°C° 0 mm 2 mps 706 mmHg 25%
    18:00 +25°C° 0 mm 1 mps 706 mmHg 33%
    19:00 +23°C° 0 mm 1 mps 706 mmHg 40%
    20:00 +20°C° 0 mm 0 mps 706 mmHg 47%
    21:00 +19°C° 0 mm 0 mps 705 mmHg 50%
    22:00 +19°C° 0 mm 0 mps 705 mmHg 52%
    23:00 +19°C° 0 mm 0 mps 705 mmHg 55%
    Show more